Location: Newark
(33.6333°S, 78.8500°W)
Time: 21:51:07
(UTC+00:00)

Tiros 1 - Pass Details

Date: 24 October 2019
Orbit: 630 x 664 km, 48.4° (Epoch: 11 November)

Event Time Altitude Azimuth Distance (km) Brightness Sun altitude
Rises 01:10:33 0° 246° (WSW) 2,934 12.2 -19.2°
Reaches altitude 10° 01:13:20 10° 262° (W) 2,020 10.7 -19.7°
Maximum altitude 01:16:49 21° 310° (NW) 1,426 9.1 -20.4°
Enters shadow 01:19:09 15° 348° (NNW) 1,717 9.1 -20.8°
Drops below altitude 10° 01:20:16 10° 359° (N) 2,011 - -21.0°
Sets 01:23:03 0° 15° (NNE) 2,916 - -21.5°
